Home   Weather   Duisburg   Past weeks

Flag for Germany Past Weather in Duisburg, North Rhine-Westphalia, Germany — Yesterday and Last 2 Weeks

Now
23 °F

Clear.


Feels Like: 23 °F
Forecast: 21 / 31 °F
Wind: 1 mph from North

Location: Duesseldorf

Current Time: Jan 21, 2017 at 7:37:40 am

Latest Report: Jan 21, 2017 at 6:50 am


Visibility: 10 mi

Pressure: 30.42 "Hg

Humidity: 93%

Dew Point: 21 °F

Location of DuisburgLocation

Past Weather in Duisburg — Graph

°F

Duisburg Temperature Yesterday

Maximum temperature yesterday: 37 °F (at 1:50 pm)
Minimum temperature yesterday: 18 °F (at 6:20 am)
Average temperature yesterday: 29 °F

High & Low Weather Summary for the Past Weeks

 TemperatureHumidityPressure
High46 °F (Jan 11, 2:20 pm)100% (Jan 6, 7:50 am)30.74 "Hg (Jan 6, 7:50 am)
Low16 °F (Jan 6, 6:50 am)39% (Jan 19, 2:50 pm)28.94 "Hg (Jan 13, 1:20 am)
Average33 °F84%30.22 "Hg
* Reported Jan 6 6:20 am — Jan 21 6:20 am, Duisburg, Weather by CustomWeather, © 2017

Note: Actual official high and low records may vary slightly from our data, if they occured in-between our weather recording intervals... More about our weather records

Advertising

Duisburg Weather History for the Previous 24 Hours

Scroll right to see more
 ConditionsComfort  
Time TempWeatherWind HumidityBarometerVisibility
6:20 am
Sat, Jan 21
23 °FClear.1 mph93%30.42 "Hg10 mi
5:50 am23 °FClear.1 mph93%30.45 "Hg10 mi
5:20 am23 °FClear.1 mph93%30.45 "Hg10 mi
4:50 am23 °FClear.1 mph93%30.45 "Hg10 mi
4:20 am25 °FClear.2 mph86%30.45 "Hg10 mi
3:50 am28 °FClear.3 mph80%30.45 "Hg10 mi
3:20 am28 °FClear.2 mph80%30.45 "Hg10 mi
2:50 am28 °FClear.2 mph80%30.45 "Hg10 mi
2:20 am28 °FClear.2 mph80%30.45 "Hg10 mi
1:50 am30 °FClear.3 mph75%30.45 "Hg10 mi
1:20 am30 °FClear.3 mph75%30.48 "Hg10 mi
12:50 am30 °FClear.2 mph75%30.48 "Hg10 mi
12:20 am30 °FClear.1 mph69%30.48 "Hg10 mi
11:50 pm
Fri, Jan 20
32 °FClear.7 mph64%30.48 "Hg10 mi
11:20 pm34 °FClear.7 mph60%30.48 "Hg10 mi
10:50 pm32 °FClear.8 mph64%30.48 "Hg10 mi
10:20 pm34 °FClear.8 mph60%30.48 "Hg10 mi
9:50 pm34 °FClear.9 mph60%30.48 "Hg10 mi
9:20 pm32 °FClear.10 mph64%30.51 "Hg10 mi
8:50 pm36 °FClear.9 mph56%30.51 "Hg10 mi
8:20 pm34 °FClear.7 mph56%30.51 "Hg10 mi
7:50 pm34 °FClear.5 mph56%30.51 "Hg10 mi
7:20 pm34 °FClear.6 mph60%30.51 "Hg10 mi
6:50 pm34 °FClear.3 mph60%30.51 "Hg10 mi
6:20 pm34 °FClear.2 mph65%30.51 "Hg10 mi
5:50 pm34 °FClear.1 mph65%30.51 "Hg10 mi
5:20 pm36 °FClear.2 mph60%30.51 "Hg10 mi
4:50 pm36 °FSunny.3 mph65%30.51 "Hg10 mi
4:20 pm36 °FSunny.3 mph65%30.51 "Hg10 mi
3:50 pm37 °FSunny.3 mph60%30.51 "Hg10 mi
3:20 pm37 °FSunny.2 mph60%30.51 "Hg10 mi
2:50 pm37 °FSunny.2 mph60%30.51 "Hg10 mi
2:20 pm37 °FSunny.3 mph56%30.54 "Hg10 mi
1:50 pm37 °FSunny.3 mph60%30.54 "Hg10 mi
1:20 pm36 °FSunny.2 mph65%30.54 "Hg10 mi
12:50 pm36 °FSunny.2 mph60%30.54 "Hg10 mi
12:20 pm36 °FSunny.2 mph60%30.57 "Hg10 mi
11:50 am36 °FSunny.1 mph60%30.57 "Hg10 mi
11:20 am32 °FSunny.1 mph69%30.57 "Hg10 mi
10:50 am34 °FSunny.2 mph65%30.57 "Hg10 mi
10:20 am28 °FSunny.1 mph74%30.57 "Hg10 mi
9:50 am27 °FSunny.1 mph80%30.57 "Hg10 mi
9:20 am23 °FSunny.2 mph86%30.57 "Hg10 mi
8:50 am21 °FSunny.2 mph86%30.57 "Hg10 mi
8:20 am21 °FClear.2 mph86%30.57 "Hg10 mi
7:50 am19 °FClear.3 mph93%30.57 "Hg10 mi
7:20 am19 °FClear.3 mph93%30.57 "Hg10 mi
Weather by CustomWeather, © 2017

See weather overviewHow to use our weather pages